China Lake, CA

8:46 AM PDT on March 30, 2017 (GMT -0700)
China Lake NAWS

Weather History for KNID - September, 2013

Change the Weather History Date:

Monday, September 9, 2013

  Actual Average Record
Temperature  
Mean Temperature 82 °F -  
Max Temperature 97 °F 93 °F 105 °F (2012)
Min Temperature 66 °F 65 °F 48 °F (2002)
Cooling Degree Days 16    
Growing Degree Days 32 (Base 50)    
Moisture  
Dew Point 53 °F    
Average Humidity 43    
Maximum Humidity 84    
Minimum Humidity 18    
Precipitation  
Precipitation 0.00 in - - ()
Sea Level Pressure  
Sea Level Pressure 29.74 in    
Wind  
Wind Speed 4 mph (SE)    
Max Wind Speed 9 mph    
Max Gust Speed -    
Visibility 10 miles    
Events      
Averages and records for this station are not official NWS values.
T = Trace of Precipitation, MM = Missing Value Source: NWS Daily Summary

Daily Weather History Graph

Daily Weather History Graph

Search for Another Location

Airport or City:

Trip Planner

Search our weather history database for the weather conditions in past years. The results will help you decide how hot, cold, wet, or windy it might be!

Date:

Astronomy

Sep. 09, 2013 Rise Set
Actual Time 6:29 AM PDT 7:06 PM PDT
Civil Twilight 6:03 AM PDT 7:31 PM PDT
Nautical Twilight 5:33 AM PDT 8:02 PM PDT
Astronomical Twilight 5:01 AM PDT 8:33 PM PDT
Moon 10:45 AM PDT (9/9) 9:37 PM PDT (9/9)
Length of Visible Light 13h 28m
Length of Day
12h 37m
Waxing Crescent, 20% of the Moon is Illuminated
Sep 9
Waxing Crescent
Sep 12
First Quarter
Sep 19
Full
Sep 26
Last Quarter
Oct 4
New

Hourly Weather History & Observations

Time (PDT) Temp. Heat Index Dew Point Humidity Pressure Visibility Wind Dir Wind Speed Gust Speed Precip Events Conditions
12:56 AM 73.9 °F - 63.0 °F 68% 29.79 in 10.0 mi Calm Calm - N/A   Unknown
1:56 AM 72.0 °F - 64.0 °F 76% 29.78 in 10.0 mi NNE 3.5 mph - N/A   Unknown
2:56 AM 71.1 °F - 62.1 °F 73% 29.77 in 10.0 mi SSE 8.1 mph - N/A   Unknown
3:56 AM 71.1 °F - 60.1 °F 68% 29.77 in 10.0 mi South 5.8 mph - N/A   Unknown
4:56 AM 69.1 °F - 60.1 °F 73% 29.79 in 10.0 mi NE 4.6 mph - N/A   Mostly Cloudy
5:56 AM 68.0 °F - 63.0 °F 84% 29.80 in 10.0 mi NNW 4.6 mph - N/A   Mostly Cloudy
6:56 AM 66.9 °F - 62.1 °F 84% 29.81 in 10.0 mi Calm Calm - N/A   Partly Cloudy
7:56 AM 72.0 °F - 62.1 °F 71% 29.82 in 10.0 mi Calm Calm - N/A   Partly Cloudy
8:56 AM 77.0 °F - 59.0 °F 54% 29.83 in 10.0 mi SE 3.5 mph - N/A   Partly Cloudy
9:56 AM 82.0 °F 81.7 °F 57.0 °F 42% 29.83 in 10.0 mi Calm Calm - N/A   Clear
10:56 AM 86.0 °F 84.7 °F 55.9 °F 36% 29.81 in 10.0 mi Variable 3.5 mph - N/A   Clear
11:56 AM 88.0 °F 85.9 °F 54.0 °F 31% 29.78 in 10.0 mi East 6.9 mph - N/A   Partly Cloudy
12:56 PM 90.0 °F - 51.1 °F 26% 29.75 in 10.0 mi Calm Calm - N/A   Partly Cloudy
1:56 PM 93.0 °F - 52.0 °F 25% 29.72 in 10.0 mi East 6.9 mph - N/A   Partly Cloudy
2:56 PM 93.9 °F - 51.1 °F 23% 29.68 in 10.0 mi Variable 5.8 mph - N/A   Scattered Clouds
3:56 PM 96.1 °F - 48.9 °F 20% 29.66 in 10.0 mi ESE 8.1 mph - N/A   Scattered Clouds
4:56 PM 97.0 °F - 48.0 °F 19% 29.65 in 10.0 mi ESE 9.2 mph - N/A   Scattered Clouds
5:56 PM 96.1 °F - 46.9 °F 19% 29.65 in 10.0 mi ESE 6.9 mph - N/A   Scattered Clouds
6:56 PM 93.0 °F - 43.0 °F 18% 29.65 in 10.0 mi WSW 4.6 mph - N/A   Scattered Clouds
7:56 PM 89.1 °F - 43.0 °F 20% 29.65 in 10.0 mi SW 6.9 mph - N/A   Scattered Clouds
8:56 PM 84.0 °F - 42.1 °F 23% 29.67 in 10.0 mi SSW 5.8 mph - N/A   Scattered Clouds
9:56 PM 82.0 °F - 39.9 °F 22% 29.67 in 10.0 mi Calm Calm - N/A   Partly Cloudy
10:56 PM 79.0 °F - 41.0 °F 26% 29.67 in 10.0 mi South 5.8 mph - N/A   Partly Cloudy
11:56 PM 79.0 °F - 42.1 °F 27% 29.67 in 10.0 mi SSE 8.1 mph - N/A   Unknown